Gaylord, MI

12:43 AM EST on November 25, 2017 (GMT -0500)
Otsego County

Weather History for KGLR - November, 2013

Change the Weather History Date:

Friday, November 29, 2013

  Actual Average Record
Temperature  
Mean Temperature 10 °F -  
Max Temperature 26 °F 33 °F 60 °F (1998)
Min Temperature -6 °F 21 °F -6 °F (2013)
Degree Days  
Heating Degree Days 55    
Moisture  
Dew Point 5 °F    
Average Humidity 86    
Maximum Humidity 100    
Minimum Humidity 71    
Precipitation  
Precipitation 0.00 in - - ()
Sea Level Pressure  
Sea Level Pressure 30.51 in    
Wind  
Wind Speed 1 mph (South)    
Max Wind Speed 12 mph    
Max Gust Speed -    
Visibility 6 miles    
Events Fog    
Averages and records for this station are not official NWS values.
T = Trace of Precipitation, MM = Missing Value Source: NWS Daily Summary

Daily Weather History Graph

Daily Weather History Graph

Search for Another Location

Airport or City:

Trip Planner

Search our weather history database for the weather conditions in past years. The results will help you decide how hot, cold, wet, or windy it might be!

Date:

Astronomy

Nov. 29, 2013 Rise Set
Actual Time 7:54 AM EST 4:59 PM EST
Civil Twilight 7:21 AM EST 5:32 PM EST
Nautical Twilight 6:45 AM EST 6:08 PM EST
Astronomical Twilight 6:09 AM EST 6:44 PM EST
Moon 3:50 AM EST (11/29) 2:51 PM EST (11/29)
Length of Visible Light 10h 10m
Length of Day
9h 04m
Waning Crescent, 14% of the Moon is Illuminated
Nov 29
Waning Crescent
Dec 2
New
Dec 9
First Quarter
Dec 17
Full
Dec 25
Last Quarter

Hourly Weather History & Observations

Time (EST) Temp. Windchill Dew Point Humidity Pressure Visibility Wind Dir Wind Speed Gust Speed Precip Events Conditions
12:02 AM 3.9 °F - 3.0 °F 96% 30.37 in 0.8 mi Calm Calm - N/A   Clear
12:11 AM 6.1 °F - 1.9 °F 83% 30.38 in 0.5 mi Calm Calm - N/A Fog Light Freezing Fog
12:19 AM 10.0 °F - 7.0 °F 87% 30.38 in 2.5 mi Calm Calm - N/A   Scattered Clouds
12:26 AM 8.1 °F - 8.1 °F 100% 30.38 in 10.0 mi Calm Calm - N/A   Mostly Cloudy
12:32 AM 1.9 °F - 1.9 °F 100% 30.38 in 1.5 mi Calm Calm - N/A   Mostly Cloudy
12:44 AM 7.0 °F - 3.0 °F 84% 30.38 in 3.0 mi Calm Calm - N/A   Overcast
12:53 AM 8.1 °F - 5.0 °F 87% 30.47 in 10.0 mi Calm Calm - N/A   Overcast
1:47 AM 3.2 °F - 1.4 °F 92% 30.40 in 2.5 mi Calm Calm - N/A   Scattered Clouds
1:48 AM 3.0 °F - 1.0 °F 91% 30.49 in 2.0 mi Calm Calm - N/A   Scattered Clouds
1:57 AM 1.9 °F - -0.0 °F 91% 30.40 in 1.5 mi Calm Calm - N/A   Mostly Cloudy
2:40 AM -0.0 °F - -2.9 °F 88% 30.41 in 2.5 mi Calm Calm - N/A   Mostly Cloudy
2:53 AM -0.0 °F - -4.0 °F 83% 30.51 in 2.5 mi Calm Calm - N/A   Partly Cloudy
3:00 AM 1.9 °F - -2.0 °F 83% 30.42 in 8.0 mi Calm Calm - N/A   Partly Cloudy
3:18 AM 1.0 °F - -2.0 °F 87% 30.42 in 4.0 mi Calm Calm - N/A   Mostly Cloudy
3:27 AM -0.0 °F - -4.0 °F 83% 30.43 in 2.0 mi Calm Calm - N/A   Mostly Cloudy
3:45 AM -2.0 °F - -5.1 °F 87% 30.43 in 1.5 mi Calm Calm - N/A   Overcast
3:53 AM -2.0 °F - -4.0 °F 91% 30.53 in 1.5 mi Calm Calm - N/A   Overcast
4:03 AM -2.9 °F - -7.1 °F 82% 30.44 in 2.5 mi Calm Calm - N/A   Overcast
4:19 AM -2.0 °F - -6.0 °F 83% 30.44 in 3.0 mi Calm Calm - N/A   Scattered Clouds
4:53 AM -4.0 °F - -8.0 °F 83% 30.55 in 10.0 mi Calm Calm - N/A   Clear
5:53 AM -6.0 °F - -8.0 °F 91% 30.57 in 10.0 mi Calm Calm - N/A   Clear
6:12 AM -5.1 °F - -9.0 °F 83% 30.48 in 10.0 mi Calm Calm - N/A   Scattered Clouds
6:21 AM -2.9 °F - -7.1 °F 82% 30.49 in 7.0 mi Calm Calm - N/A   Mostly Cloudy
6:53 AM -2.9 °F - -6.0 °F 87% 30.59 in 0.8 mi Calm Calm - N/A   Mist
7:03 AM -4.0 °F - -5.1 °F 95% 30.50 in 0.2 mi Calm Calm - N/A Fog Light Freezing Fog
7:27 AM -5.1 °F - -6.0 °F 96% 30.50 in 0.5 mi Calm Calm - N/A Fog Light Freezing Fog
7:53 AM -5.1 °F - -7.1 °F 91% 30.62 in 0.2 mi Calm Calm - N/A Fog Light Freezing Fog
8:15 AM -2.9 °F - -6.0 °F 87% 30.52 in 1.2 mi Calm Calm - N/A   Overcast
8:21 AM -2.0 °F - -5.1 °F 87% 30.52 in 0.2 mi Calm Calm - N/A Fog Light Freezing Fog
8:53 AM -0.9 °F - -0.9 °F 100% 30.63 in 0.2 mi Calm Calm - N/A Fog Light Freezing Fog
9:04 AM -0.0 °F - -0.0 °F 100% 30.53 in 1.5 mi Calm Calm - N/A   Scattered Clouds
9:06 AM -0.0 °F - -0.0 °F 100% 30.53 in 4.0 mi Calm Calm - N/A   Scattered Clouds
9:53 AM 3.0 °F - 3.0 °F 100% 30.65 in 3.0 mi Calm Calm - N/A   Clear
10:53 AM 12.9 °F 6.9 °F 12.0 °F 96% 30.65 in 10.0 mi South 3.5 mph - N/A   Clear
11:53 AM 19.9 °F 12.1 °F 17.1 °F 89% 30.63 in 10.0 mi South 5.8 mph - N/A   Clear
12:53 PM 23.0 °F 13.9 °F 16.0 °F 74% 30.62 in 10.0 mi South 8.1 mph - N/A   Clear
1:53 PM 25.0 °F 16.3 °F 17.1 °F 72% 30.61 in 10.0 mi South 8.1 mph - N/A   Clear
2:53 PM 26.1 °F 18.4 °F 18.0 °F 71% 30.60 in 7.0 mi South 6.9 mph - N/A   Mostly Cloudy
3:37 PM 26.1 °F 17.6 °F 19.0 °F 75% 30.51 in 10.0 mi South 8.1 mph - N/A   Overcast
3:53 PM 26.1 °F 17.6 °F 19.0 °F 75% 30.60 in 10.0 mi South 8.1 mph - N/A   Overcast
4:36 PM 26.1 °F 17.6 °F 19.0 °F 75% 30.51 in 10.0 mi South 8.1 mph - N/A   Overcast
4:53 PM 25.0 °F 17.1 °F 19.0 °F 78% 30.60 in 10.0 mi South 6.9 mph - N/A   Overcast
5:53 PM 25.0 °F 16.3 °F 19.0 °F 78% 30.60 in 10.0 mi South 8.1 mph - N/A   Overcast
6:01 PM 25.0 °F 16.3 °F 19.0 °F 78% 30.51 in 10.0 mi South 8.1 mph - N/A   Overcast
6:53 PM 25.0 °F 17.1 °F 19.9 °F 81% 30.59 in 10.0 mi South 6.9 mph - N/A   Overcast
7:53 PM 25.0 °F 15.5 °F 19.0 °F 78% 30.58 in 10.0 mi South 9.2 mph - N/A   Overcast
8:53 PM 24.1 °F 17.0 °F 18.0 °F 77% 30.56 in 10.0 mi South 5.8 mph - N/A   Scattered Clouds
9:53 PM 23.0 °F 12.4 °F 17.1 °F 78% 30.55 in 10.0 mi South 10.4 mph - N/A   Mostly Cloudy
10:53 PM 21.9 °F 10.4 °F 16.0 °F 78% 30.52 in 10.0 mi South 11.5 mph - N/A   Mostly Cloudy
11:53 PM 21.0 °F 10.6 °F 17.1 °F 85% 30.50 in 10.0 mi South 9.2 mph - N/A   Partly Cloudy